Time,TemperatureF,DewpointF,PressureIn,WindDirection,WindDirectionDegrees,WindSpeedMPH,WindSpeedGustMPH,Humidity,HourlyPrecipIn,Conditions,Clouds,dailyrainin,SoftwareType,DateUTC
2013-01-01 00:03:00,73.0,-99.9,30.21,SSE,147,16.0,17.0,-999,-99.99,,,-99.99,,2013-01-01 05:03:00,
2013-01-01 00:12:00,73.0,-99.9,30.21,SE,146,16.0,19.0,-999,-99.99,,,-99.99,,2013-01-01 05:12:00,
2013-01-01 00:22:00,73.0,-99.9,30.21,SSE,153,17.0,21.0,-999,-99.99,,,-99.99,,2013-01-01 05:22:00,
2013-01-01 00:33:00,73.0,-99.9,30.21,SE,145,15.0,19.0,-999,-99.99,,,-99.99,,2013-01-01 05:33:00,
2013-01-01 00:42:00,72.0,-99.9,30.20,SSE,151,18.0,21.0,-999,-99.99,,,-99.99,,2013-01-01 05:42:00,
2013-01-01 00:53:00,72.0,-99.9,30.20,SSE,150,17.0,20.0,-999,-99.99,,,-99.99,,2013-01-01 05:53:00,
2013-01-01 01:02:00,72.0,-99.9,30.20,SSE,157,11.0,17.0,-999,-99.99,,,-99.99,,2013-01-01 06:02:00,
2013-01-01 01:12:00,73.0,-99.9,30.20,SE,146,14.0,17.0,-999,-99.99,,,-99.99,,2013-01-01 06:12:00,
2013-01-01 01:22:00,72.0,-99.9,30.20,SE,145,15.0,18.0,-999,-99.99,,,-99.99,,2013-01-01 06:22:00,
2013-01-01 01:33:00,73.0,-99.9,30.20,SE,133,10.0,13.0,-999,-99.99,,,-99.99,,2013-01-01 06:33:00,
2013-01-01 01:43:00,72.0,-99.9,30.19,SSE,150,13.0,16.0,-999,-99.99,,,-99.99,,2013-01-01 06:43:00,
2013-01-01 01:52:00,72.0,-99.9,30.19,SE,143,17.0,20.0,-999,-99.99,,,-99.99,,2013-01-01 06:52:00,
2013-01-01 02:02:00,72.0,-99.9,30.19,SE,142,18.0,21.0,-999,-99.99,,,-99.99,,2013-01-01 07:02:00,
2013-01-01 02:12:00,72.0,-99.9,30.19,SE,146,19.0,24.0,-999,-99.99,,,-99.99,,2013-01-01 07:12:00,
2013-01-01 02:22:00,72.0,-99.9,30.19,SE,146,16.0,22.0,-999,-99.99,,,-99.99,,2013-01-01 07:22:00,
2013-01-01 02:32:00,73.0,-99.9,30.19,SE,134,13.0,16.0,-999,-99.99,,,-99.99,,2013-01-01 07:32:00,
2013-01-01 02:43:00,72.0,-99.9,30.19,SE,143,15.0,18.0,-999,-99.99,,,-99.99,,2013-01-01 07:43:00,
2013-01-01 02:53:00,72.0,-99.9,30.19,SE,135,15.0,18.0,-999,-99.99,,,-99.99,,2013-01-01 07:53:00,
2013-01-01 03:02:00,72.0,-99.9,30.19,SSE,149,13.0,15.0,-999,-99.99,,,-99.99,,2013-01-01 08:02:00,
2013-01-01 03:12:00,72.0,-99.9,30.19,SE,144,9.0,14.0,-999,-99.99,,,-99.99,,2013-01-01 08:12:00,
2013-01-01 03:22:00,72.0,-99.9,30.19,SSE,147,10.0,13.0,-999,-99.99,,,-99.99,,2013-01-01 08:22:00,
2013-01-01 03:32:00,72.0,-99.9,30.19,SSE,149,12.0,14.0,-999,-99.99,,,-99.99,,2013-01-01 08:32:00,
2013-01-01 03:42:00,72.0,-99.9,30.19,SE,133,12.0,13.0,-999,-99.99,,,-99.99,,2013-01-01 08:42:00,
2013-01-01 03:53:00,72.0,-99.9,30.19,SSE,153,12.0,15.0,-999,-99.99,,,-99.99,,2013-01-01 08:53:00,
2013-01-01 04:02:00,72.0,-99.9,30.19,SE,145,11.0,13.0,-999,-99.99,,,-99.99,,2013-01-01 09:02:00,
2013-01-01 04:12:00,72.0,-99.9,30.19,SE,137,7.0,12.0,-999,-99.99,,,-99.99,,2013-01-01 09:12:00,
2013-01-01 04:22:00,72.0,-99.9,30.19,SE,133,9.0,12.0,-999,-99.99,,,-99.99,,2013-01-01 09:22:00,
2013-01-01 04:32:00,72.0,-99.9,30.18,SE,132,13.0,15.0,-999,-99.99,,,-99.99,,2013-01-01 09:32:00,
2013-01-01 04:43:00,72.0,-99.9,30.17,SE,140,15.0,17.0,-999,-99.99,,,-99.99,,2013-01-01 09:43:00,
2013-01-01 04:53:00,73.0,-99.9,30.17,SSE,150,14.0,17.0,-999,-99.99,,,-99.99,,2013-01-01 09:53:00,
2013-01-01 05:02:00,73.0,-99.9,30.17,SE,144,16.0,20.0,-999,-99.99,,,-99.99,,2013-01-01 10:02:00,
2013-01-01 05:12:00,72.0,-99.9,30.16,SE,142,15.0,18.0,-999,-99.99,,,-99.99,,2013-01-01 10:12:00,
2013-01-01 05:22:00,72.0,-99.9,30.16,SE,146,13.0,18.0,-999,-99.99,,,-99.99,,2013-01-01 10:22:00,
2013-01-01 05:33:00,72.0,-99.9,30.16,SSE,155,13.0,15.0,-999,-99.99,,,-99.99,,2013-01-01 10:33:00,
2013-01-01 05:43:00,72.0,-99.9,30.16,SSE,151,11.0,13.0,-999,-99.99,,,-99.99,,2013-01-01 10:43:00,
2013-01-01 05:53:00,72.0,-99.9,30.16,SE,141,10.0,13.0,-999,-99.99,,,-99.99,,2013-01-01 10:53:00,
2013-01-01 06:02:00,73.0,-99.9,30.16,SE,134,11.0,13.0,-999,-99.99,,,-99.99,,2013-01-01 11:02:00,
2013-01-01 06:12:00,73.0,-99.9,30.16,SSE,151,18.0,21.0,-999,-99.99,,,-99.99,,2013-01-01 11:12:00,
2013-01-01 06:23:00,73.0,-99.9,30.16,SSE,152,16.0,19.0,-999,-99.99,,,-99.99,,2013-01-01 11:23:00,
2013-01-01 06:33:00,73.0,-99.9,30.15,SE,144,16.0,18.0,-999,-99.99,,,-99.99,,2013-01-01 11:33:00,
2013-01-01 06:43:00,73.0,-99.9,30.14,SE,141,15.0,18.0,-999,-99.99,,,-99.99,,2013-01-01 11:43:00,
2013-01-01 06:53:00,73.0,-99.9,30.14,SE,145,15.0,18.0,-999,-99.99,,,-99.99,,2013-01-01 11:53:00,
2013-01-01 07:03:00,73.0,-99.9,30.14,SE,145,15.0,18.0,-999,-99.99,,,-99.99,,2013-01-01 12:03:00,
2013-01-01 07:12:00,73.0,-99.9,30.15,SE,141,15.0,19.0,-999,-99.99,,,-99.99,,2013-01-01 12:12:00,
2013-01-01 07:22:00,73.0,-99.9,30.15,SE,140,17.0,21.0,-999,-99.99,,,-99.99,,2013-01-01 12:22:00,
2013-01-01 07:33:00,73.0,-99.9,30.15,SE,143,16.0,17.0,-999,-99.99,,,-99.99,,2013-01-01 12:33:00,
2013-01-01 07:43:00,73.0,-99.9,30.15,SSE,148,18.0,21.0,-999,-99.99,,,-99.99,,2013-01-01 12:43:00,
2013-01-01 07:53:00,73.0,-99.9,30.15,SE,145,18.0,22.0,-999,-99.99,,,-99.99,,2013-01-01 12:53:00,
2013-01-01 08:03:00,73.0,-99.9,30.16,SE,146,18.0,20.0,-999,-99.99,,,-99.99,,2013-01-01 13:03:00,
2013-01-01 08:12:00,73.0,-99.9,30.16,SSE,150,18.0,20.0,-999,-99.99,,,-99.99,,2013-01-01 13:12:00,
2013-01-01 08:22:00,73.0,-99.9,30.16,SSE,148,18.0,23.0,-999,-99.99,,,-99.99,,2013-01-01 13:22:00,
2013-01-01 08:33:00,73.0,-99.9,30.15,SSE,149,19.0,23.0,-999,-99.99,,,-99.99,,2013-01-01 13:33:00,
2013-01-01 08:43:00,73.0,-99.9,30.16,SE,146,19.0,21.0,-999,-99.99,,,-99.99,,2013-01-01 13:43:00,
2013-01-01 08:53:00,73.0,-99.9,30.16,SE,144,21.0,24.0,-999,-99.99,,,-99.99,,2013-01-01 13:53:00,
2013-01-01 09:03:00,73.0,-99.9,30.17,SSE,150,17.0,21.0,-999,-99.99,,,-99.99,,2013-01-01 14:03:00,
2013-01-01 09:12:00,73.0,-99.9,30.16,SE,143,18.0,21.0,-999,-99.99,,,-99.99,,2013-01-01 14:12:00,
2013-01-01 09:22:00,73.0,-99.9,30.17,SSE,150,21.0,23.0,-999,-99.99,,,-99.99,,2013-01-01 14:22:00,
2013-01-01 09:33:00,73.0,-99.9,30.17,SSE,157,16.0,24.0,-999,-99.99,,,-99.99,,2013-01-01 14:33:00,
2013-01-01 09:43:00,73.0,-99.9,30.17,SSE,149,18.0,24.0,-999,-99.99,,,-99.99,,2013-01-01 14:43:00,
2013-01-01 09:53:00,73.0,-99.9,30.17,SE,143,20.0,23.0,-999,-99.99,,,-99.99,,2013-01-01 14:53:00,
2013-01-01 10:03:00,74.0,-99.9,30.17,SSE,147,21.0,23.0,-999,-99.99,,,-99.99,,2013-01-01 15:03:00,
2013-01-01 10:13:00,74.0,-99.9,30.17,SE,143,19.0,22.0,-999,-99.99,,,-99.99,,2013-01-01 15:13:00,
2013-01-01 10:22:00,73.0,-99.9,30.17,SSE,155,21.0,24.0,-999,-99.99,,,-99.99,,2013-01-01 15:22:00,
2013-01-01 10:33:00,74.0,-99.9,30.17,SSE,155,21.0,24.0,-999,-99.99,,,-99.99,,2013-01-01 15:33:00,
2013-01-01 10:43:00,74.0,-99.9,30.17,SSE,154,20.0,25.0,-999,-99.99,,,-99.99,,2013-01-01 15:43:00,
2013-01-01 10:53:00,73.0,-99.9,30.17,SSE,151,20.0,24.0,-999,-99.99,,,-99.99,,2013-01-01 15:53:00,
2013-01-01 11:02:00,74.0,-99.9,30.16,SSE,165,21.0,24.0,-999,-99.99,,,-99.99,,2013-01-01 16:02:00,
2013-01-01 11:12:00,74.0,-99.9,30.16,SSE,164,21.0,24.0,-999,-99.99,,,-99.99,,2013-01-01 16:12:00,
2013-01-01 11:23:00,74.0,-99.9,30.16,SSE,163,20.0,22.0,-999,-99.99,,,-99.99,,2013-01-01 16:23:00,
2013-01-01 11:33:00,73.0,-99.9,30.16,SSE,163,20.0,24.0,-999,-99.99,,,-99.99,,2013-01-01 16:33:00,
2013-01-01 11:43:00,74.0,-99.9,30.16,SSE,158,19.0,22.0,-999,-99.99,,,-99.99,,2013-01-01 16:43:00,
2013-01-01 11:53:00,73.0,-99.9,30.16,South,172,18.0,23.0,-999,-99.99,,,-99.99,,2013-01-01 16:53:00,
2013-01-01 12:03:00,74.0,-99.9,30.16,SSE,168,17.0,22.0,-999,-99.99,,,-99.99,,2013-01-01 17:03:00,
2013-01-01 12:12:00,73.0,-99.9,30.15,SSE,160,19.0,21.0,-999,-99.99,,,-99.99,,2013-01-01 17:12:00,
2013-01-01 12:23:00,74.0,-99.9,30.15,SSE,161,19.0,22.0,-999,-99.99,,,-99.99,,2013-01-01 17:23:00,
2013-01-01 12:33:00,74.0,-99.9,30.14,SSE,158,20.0,25.0,-999,-99.99,,,-99.99,,2013-01-01 17:33:00,
2013-01-01 12:43:00,74.0,-99.9,30.12,SSE,151,21.0,24.0,-999,-99.99,,,-99.99,,2013-01-01 17:43:00,
2013-01-01 12:53:00,74.0,-99.9,30.12,SSE,160,19.0,23.0,-999,-99.99,,,-99.99,,2013-01-01 17:53:00,
2013-01-01 13:03:00,74.0,-99.9,30.11,SSE,159,22.0,27.0,-999,-99.99,,,-99.99,,2013-01-01 18:03:00,
2013-01-01 13:13:00,74.0,-99.9,30.11,SSE,163,20.0,25.0,-999,-99.99,,,-99.99,,2013-01-01 18:13:00,
2013-01-01 13:23:00,74.0,-99.9,30.11,South,169,19.0,24.0,-999,-99.99,,,-99.99,,2013-01-01 18:23:00,
2013-01-01 13:33:00,74.0,-99.9,30.11,SSE,167,19.0,23.0,-999,-99.99,,,-99.99,,2013-01-01 18:33:00,
2013-01-01 13:43:00,74.0,-99.9,30.10,SSE,161,17.0,19.0,-999,-99.99,,,-99.99,,2013-01-01 18:43:00,
2013-01-01 13:53:00,74.0,-99.9,30.10,SSE,166,18.0,19.0,-999,-99.99,,,-99.99,,2013-01-01 18:53:00,
2013-01-01 14:02:00,74.0,-99.9,30.09,South,179,18.0,20.0,-999,-99.99,,,-99.99,,2013-01-01 19:02:00,
2013-01-01 14:12:00,74.0,-99.9,30.09,South,170,18.0,22.0,-999,-99.99,,,-99.99,,2013-01-01 19:12:00,
2013-01-01 14:22:00,74.0,-99.9,30.09,South,174,17.0,21.0,-999,-99.99,,,-99.99,,2013-01-01 19:22:00,
2013-01-01 14:33:00,74.0,-99.9,30.09,South,177,16.0,22.0,-999,-99.99,,,-99.99,,2013-01-01 19:33:00,
2013-01-01 14:43:00,74.0,-99.9,30.08,South,171,19.0,21.0,-999,-99.99,,,-99.99,,2013-01-01 19:43:00,
2013-01-01 14:53:00,74.0,-99.9,30.08,South,176,16.0,19.0,-999,-99.99,,,-99.99,,2013-01-01 19:53:00,
2013-01-01 15:02:00,74.0,-99.9,30.09,South,175,17.0,20.0,-999,-99.99,,,-99.99,,2013-01-01 20:02:00,
2013-01-01 15:13:00,74.0,-99.9,30.08,South,170,17.0,19.0,-999,-99.99,,,-99.99,,2013-01-01 20:13:00,
2013-01-01 15:23:00,74.0,-99.9,30.08,South,175,16.0,19.0,-999,-99.99,,,-99.99,,2013-01-01 20:23:00,
2013-01-01 15:33:00,74.0,-99.9,30.08,South,176,15.0,17.0,-999,-99.99,,,-99.99,,2013-01-01 20:33:00,
2013-01-01 15:43:00,74.0,-99.9,30.08,South,184,16.0,19.0,-999,-99.99,,,-99.99,,2013-01-01 20:43:00,
2013-01-01 15:53:00,74.0,-99.9,30.08,South,181,18.0,21.0,-999,-99.99,,,-99.99,,2013-01-01 20:53:00,
2013-01-01 16:03:00,74.0,-99.9,30.08,South,183,16.0,18.0,-999,-99.99,,,-99.99,,2013-01-01 21:03:00,
2013-01-01 16:13:00,74.0,-99.9,30.07,South,184,16.0,19.0,-999,-99.99,,,-99.99,,2013-01-01 21:13:00,
2013-01-01 16:22:00,74.0,-99.9,30.07,South,173,16.0,17.0,-999,-99.99,,,-99.99,,2013-01-01 21:22:00,
2013-01-01 16:33:00,74.0,-99.9,30.08,South,169,16.0,17.0,-999,-99.99,,,-99.99,,2013-01-01 21:33:00,
2013-01-01 16:43:00,74.0,-99.9,30.07,South,176,14.0,17.0,-999,-99.99,,,-99.99,,2013-01-01 21:43:00,
2013-01-01 16:53:00,74.0,-99.9,30.07,South,178,13.0,17.0,-999,-99.99,,,-99.99,,2013-01-01 21:53:00,
2013-01-01 17:03:00,74.0,-99.9,30.07,South,185,14.0,16.0,-999,-99.99,,,-99.99,,2013-01-01 22:03:00,
2013-01-01 17:13:00,74.0,-99.9,30.07,SSE,159,13.0,14.0,-999,-99.99,,,-99.99,,2013-01-01 22:13:00,
2013-01-01 17:23:00,74.0,-99.9,30.07,SSE,163,13.0,16.0,-999,-99.99,,,-99.99,,2013-01-01 22:23:00,
2013-01-01 17:33:00,74.0,-99.9,30.07,South,184,13.0,15.0,-999,-99.99,,,-99.99,,2013-01-01 22:33:00,
2013-01-01 17:43:00,74.0,-99.9,30.07,South,178,11.0,14.0,-999,-99.99,,,-99.99,,2013-01-01 22:43:00,
2013-01-01 17:53:00,74.0,-99.9,30.07,South,177,11.0,14.0,-999,-99.99,,,-99.99,,2013-01-01 22:53:00,
2013-01-01 18:03:00,74.0,-99.9,30.07,SSE,159,14.0,17.0,-999,-99.99,,,-99.99,,2013-01-01 23:03:00,
2013-01-01 18:13:00,74.0,-99.9,30.07,South,172,12.0,15.0,-999,-99.99,,,-99.99,,2013-01-01 23:13:00,
2013-01-01 18:22:00,74.0,-99.9,30.07,SSE,158,12.0,14.0,-999,-99.99,,,-99.99,,2013-01-01 23:22:00,
2013-01-01 18:33:00,74.0,-99.9,30.07,SSE,163,12.0,15.0,-999,-99.99,,,-99.99,,2013-01-01 23:33:00,
2013-01-01 18:42:00,74.0,-99.9,30.07,SSE,157,13.0,14.0,-999,-99.99,,,-99.99,,2013-01-01 23:42:00,
2013-01-01 18:53:00,74.0,-99.9,30.07,SSE,159,11.0,14.0,-999,-99.99,,,-99.99,,2013-01-01 23:53:00,
2013-01-01 19:03:00,74.0,-99.9,30.07,SSE,152,12.0,13.0,-999,-99.99,,,-99.99,,2013-01-02 00:03:00,
2013-01-01 19:12:00,74.0,-99.9,30.08,South,188,10.0,16.0,-999,-99.99,,,-99.99,,2013-01-02 00:12:00,
2013-01-01 19:22:00,74.0,-99.9,30.08,SSW,195,6.0,11.0,-999,-99.99,,,-99.99,,2013-01-02 00:22:00,
2013-01-01 19:33:00,74.0,-99.9,30.08,SSW,197,5.0,6.0,-999,-99.99,,,-99.99,,2013-01-02 00:33:00,
2013-01-01 19:43:00,74.0,-99.9,30.09,SSW,199,4.0,5.0,-999,-99.99,,,-99.99,,2013-01-02 00:43:00,
2013-01-01 19:53:00,74.0,-99.9,30.09,SSW,202,3.0,5.0,-999,-99.99,,,-99.99,,2013-01-02 00:53:00,
2013-01-01 20:02:00,74.0,-99.9,30.09,SSW,203,4.0,4.0,-999,-99.99,,,-99.99,,2013-01-02 01:02:00,
2013-01-01 20:12:00,74.0,-99.9,30.08,SW,218,4.0,5.0,-999,-99.99,,,-99.99,,2013-01-02 01:12:00,
2013-01-01 20:22:00,74.0,-99.9,30.09,SSW,200,3.0,4.0,-999,-99.99,,,-99.99,,2013-01-02 01:22:00,
2013-01-01 20:33:00,74.0,-99.9,30.08,SSW,211,4.0,4.0,-999,-99.99,,,-99.99,,2013-01-02 01:33:00,
2013-01-01 20:42:00,74.0,-99.9,30.08,SSW,211,4.0,5.0,-999,-99.99,,,-99.99,,2013-01-02 01:42:00,
2013-01-01 20:53:00,74.0,-99.9,30.09,SSW,213,3.0,4.0,-999,-99.99,,,-99.99,,2013-01-02 01:53:00,
2013-01-01 21:02:00,74.0,-99.9,30.09,SSW,211,3.0,4.0,-999,-99.99,,,-99.99,,2013-01-02 02:02:00,
2013-01-01 21:12:00,74.0,-99.9,30.09,SSW,212,3.0,4.0,-999,-99.99,,,-99.99,,2013-01-02 02:12:00,
2013-01-01 21:22:00,73.0,-99.9,30.09,SW,229,3.0,4.0,-999,-99.99,,,-99.99,,2013-01-02 02:22:00,
2013-01-01 21:33:00,73.0,-99.9,30.09,SW,231,3.0,4.0,-999,-99.99,,,-99.99,,2013-01-02 02:33:00,
2013-01-01 21:43:00,73.0,-99.9,30.09,SW,232,3.0,5.0,-999,-99.99,,,-99.99,,2013-01-02 02:43:00,
2013-01-01 21:53:00,73.0,-99.9,30.09,SW,233,3.0,4.0,-999,-99.99,,,-99.99,,2013-01-02 02:53:00,
2013-01-01 22:02:00,72.0,-99.9,30.10,WSW,247,4.0,5.0,-999,-99.99,,,-99.99,,2013-01-02 03:02:00,
2013-01-01 22:12:00,72.0,-99.9,30.10,SW,231,3.0,6.0,-999,-99.99,,,-99.99,,2013-01-02 03:12:00,
2013-01-01 22:22:00,72.0,-99.9,30.09,SW,231,4.0,5.0,-999,-99.99,,,-99.99,,2013-01-02 03:22:00,
2013-01-01 22:32:00,72.0,-99.9,30.09,SW,233,4.0,5.0,-999,-99.99,,,-99.99,,2013-01-02 03:32:00,
2013-01-01 22:42:00,72.0,-99.9,30.09,SW,225,4.0,5.0,-999,-99.99,,,-99.99,,2013-01-02 03:42:00,
2013-01-01 22:53:00,72.0,-99.9,30.09,SW,221,4.0,5.0,-999,-99.99,,,-99.99,,2013-01-02 03:53:00,
2013-01-01 23:03:00,73.0,-99.9,30.09,SSW,204,4.0,6.0,-999,-99.99,,,-99.99,,2013-01-02 04:03:00,
2013-01-01 23:12:00,73.0,-99.9,30.09,SSW,207,4.0,5.0,-999,-99.99,,,-99.99,,2013-01-02 04:12:00,
2013-01-01 23:22:00,73.0,-99.9,30.09,South,190,2.0,3.0,-999,-99.99,,,-99.99,,2013-01-02 04:22:00,
2013-01-01 23:33:00,73.0,-99.9,30.08,South,171,5.0,6.0,-999,-99.99,,,-99.99,,2013-01-02 04:33:00,
2013-01-01 23:42:00,73.0,-99.9,30.08,South,176,7.0,7.0,-999,-99.99,,,-99.99,,2013-01-02 04:42:00,
2013-01-01 23:53:00,73.0,-99.9,30.08,South,174,6.0,7.0,-999,-99.99,,,-99.99,,2013-01-02 04:53:00,